Location: Rounton
(54.4000°N, 1.3500°W)
Time: 20:24:20
(UTC+01:00)

YAOGAN 20A - Pass Details

Date: 08 July 2022
Orbit: 891 x 1288 km, 63.4° (Epoch: 18 August)

Event Time Altitude Azimuth Distance (km) Brightness Sun altitude
Rises 02:22:42 0° 306° (NW) 3,930 8.3 -11.6°
Reaches altitude 10° 02:26:51 10° 283° (WNW) 3,053 7.4 -11.4°
Maximum altitude 02:30:15 14° 254° (WSW) 2,821 7.0 -11.2°
Drops below altitude 10° 02:33:47 10° 226° (SW) 3,168 7.0 -11.1°
Enters shadow 02:33:56 10° 225° (SW) 3,195 7.0 -11.0°
